Date,TemperatureHighF,TemperatureAvgF,TemperatureLowF,DewpointHighF,DewpointAvgF,DewpointLowF,HumidityHigh,HumidityAvg,HumidityLow,PressureMaxIn,PressureMinIn,WindSpeedMaxMPH,WindSpeedAvgMPH,GustSpeedMaxMPH,PrecipitationSumIn
2013-1-1,58.8,50.6,46.0,46.7,43.2,26.9,84,76,62,30.11,30.03,10,1,10,0.00
2013-1-2,59.2,50.1,42.4,46.7,42.9,28.1,85,77,62,30.25,30.11,9,1,9,0.00
2013-1-3,60.8,50.4,43.7,47.7,42.6,25.4,85,75,59,30.38,30.25,29,1,29,0.00
2013-1-4,61.7,51.5,45.0,41.2,36.4,19.9,76,58,35,30.30,30.02,12,1,12,0.00
2013-1-5,57.9,51.3,45.3,36.2,33.9,13.6,65,52,23,30.02,29.75,15,3,15,0.00
2013-1-6,50.5,45.1,41.0,36.1,33.6,17.3,73,64,54,29.88,29.67,33,6,33,0.00
2013-1-7,54.3,44.4,38.7,30.1,26.4,15.0,62,50,35,29.96,29.82,22,7,22,0.00
2013-1-8,42.3,35.6,31.8,32.0,26.3,9.7,87,70,32,30.16,29.96,16,4,16,0.34
2013-1-9,48.0,39.8,34.0,28.7,25.1,8.2,68,56,44,30.20,30.13,20,4,20,0.01
2013-1-10,51.6,46.1,37.9,37.0,30.9,11.7,71,57,24,30.15,29.99,12,2,12,0.00
2013-1-11,62.4,52.6,44.4,50.5,45.2,21.6,87,76,59,29.99,29.79,8,1,8,0.05
2013-1-12,60.4,51.0,43.9,49.6,42.0,24.3,85,72,34,30.00,29.78,22,3,22,0.00
2013-1-13,60.4,50.5,43.5,44.6,40.0,22.7,79,68,28,30.20,30.00,9,2,9,0.00
2013-1-14,54.0,50.1,48.7,45.3,42.2,41.0,78,74,72,30.26,30.19,5,2,5,0.00
2013-1-23,51.6,51.3,51.1,42.9,41.9,41.6,72,70,70,29.92,29.92,4,1,4,0.00
2013-1-24,61.9,54.1,47.5,51.9,46.4,26.9,85,75,65,29.92,29.57,26,8,26,0.44
2013-1-25,58.5,50.9,44.6,47.6,43.9,24.0,86,77,40,29.62,29.47,26,6,26,0.59
2013-1-26,57.4,49.5,46.4,46.5,43.3,25.4,84,79,65,29.62,29.41,16,2,17,0.34
2013-1-27,56.1,48.0,45.1,42.7,39.7,23.3,78,73,58,29.91,29.62,15,4,15,0.08
2013-1-28,55.9,49.3,45.5,43.2,39.6,19.9,81,70,30,29.96,29.87,18,3,18,0.00
2013-1-29,51.1,46.4,43.0,40.5,38.6,21.3,82,74,31,30.07,29.95,12,1,12,0.00
2013-1-30,59.7,50.8,42.1,39.7,32.1,15.5,75,51,21,30.07,29.91,13,5,13,0.00
2013-1-31,61.3,52.8,44.2,44.4,37.0,17.1,67,55,33,29.98,29.81,21,4,21,0.00
2013-2-1,58.5,52.3,45.3,40.4,33.6,11.2,69,50,37,30.03,29.87,22,5,22,0.00
2013-2-2,62.8,54.3,45.9,50.2,45.2,38.6,82,72,55,29.88,29.74,17,3,17,0.00
2013-2-3,63.5,59.2,55.8,53.3,52.0,33.5,85,77,34,29.90,29.76,30,14,30,0.00
2013-2-4,65.7,59.5,55.9,55.1,51.6,32.6,87,76,30,29.96,29.89,14,2,14,0.00
2013-2-5,63.7,57.3,52.2,51.9,48.0,31.9,85,72,54,29.96,29.82,16,4,16,0.00
2013-2-6,62.1,54.1,47.5,50.1,45.3,25.7,82,73,62,29.82,29.65,12,3,12,0.00
2013-2-7,60.4,54.6,51.4,50.1,46.2,29.5,85,73,64,29.67,29.48,32,10,32,0.96
2013-2-8,56.3,51.2,46.6,45.0,40.7,10.2,76,67,57,29.71,29.50,14,4,14,0.78
2013-2-9,58.8,50.7,42.4,43.1,38.8,21.3,80,65,48,29.84,29.71,21,4,21,0.78
2013-2-10,57.7,51.4,46.2,40.5,37.0,19.9,70,58,24,29.85,29.75,13,4,13,0.39
2013-2-11,55.6,48.9,44.2,37.2,33.9,-20.4,73,57,21,30.00,29.73,21,5,21,0.78
2013-2-12,59.4,50.7,41.2,45.8,38.8,14.9,72,64,29,30.06,29.96,17,4,17,0.78
2013-2-13,55.6,51.6,46.0,47.7,44.5,24.6,88,77,62,29.96,29.86,23,4,23,1.40
2013-2-14,52.9,48.5,46.2,47.3,43.4,24.8,86,83,42,29.88,29.63,15,3,15,0.33
2013-2-15,52.9,47.7,45.0,44.5,41.7,26.8,85,80,39,29.99,29.63,16,3,19,0.19
2013-2-16,58.6,49.8,44.4,45.5,41.8,24.1,85,74,34,30.03,29.96,13,3,13,0.05
2013-2-17,47.1,45.4,42.4,42.4,39.7,36.0,86,81,73,30.02,29.91,29,4,29,0.34
2013-2-18,56.5,46.9,40.5,40.5,37.1,19.5,83,70,30,30.05,30.00,12,2,12,0.01
2013-2-19,57.2,49.4,44.4,49.1,42.5,28.3,88,77,67,30.00,29.74,17,3,17,0.29
2013-2-20,60.4,51.4,44.2,39.9,36.6,33.1,75,58,37,30.02,29.77,14,4,14,0.00
2013-2-21,54.1,50.6,46.6,47.1,42.0,38.0,84,72,68,30.01,29.68,11,3,12,0.02
2013-2-22,55.6,51.7,49.3,50.1,47.0,28.2,90,84,41,29.70,29.54,21,4,21,3.94
2013-2-23,64.6,54.0,46.8,51.2,46.3,26.3,89,76,34,30.00,29.70,13,2,13,0.00
2013-2-24,65.8,57.8,49.6,54.7,48.8,29.8,88,73,54,30.07,29.99,17,4,17,0.00
2013-2-25,68.9,60.2,54.3,52.8,50.1,31.1,85,70,50,30.06,29.95,20,6,20,0.00
2013-2-26,65.7,59.2,52.2,53.5,46.5,20.9,84,64,37,30.01,29.94,20,5,20,0.00
2013-2-27,60.1,53.7,49.8,42.8,39.0,22.2,70,58,30,30.03,29.91,20,6,20,0.00
2013-2-28,53.2,48.6,45.3,40.2,38.1,18.9,74,67,30,30.18,30.02,18,6,18,0.00
2013-3-1,58.6,47.7,40.8,38.6,36.5,19.8,77,66,38,30.16,29.99,15,1,15,0.00
2013-3-2,59.4,50.8,42.6,44.4,40.7,21.9,80,69,39,30.00,29.85,17,3,17,0.00
2013-3-3,55.2,50.9,46.9,45.4,40.4,23.8,83,68,40,29.93,29.74,28,10,28,0.15
2013-3-4,64.2,51.8,43.0,41.6,38.1,35.1,76,61,38,30.14,29.92,13,2,13,0.00
2013-3-5,56.5,49.3,44.8,40.9,36.0,19.2,73,61,24,30.36,30.14,23,6,23,0.00
2013-3-6,59.7,50.1,42.4,38.2,34.5,18.9,68,56,24,30.34,30.10,18,4,18,0.00
2013-3-7,57.0,52.7,50.2,49.4,44.7,38.2,84,74,62,30.11,29.89,6,1,6,0.13
2013-3-8,64.0,55.1,49.1,51.9,48.1,28.8,85,78,60,29.89,29.82,13,2,13,0.01
2013-3-9,66.4,56.9,49.8,54.2,49.0,46.1,88,76,56,29.83,29.69,13,2,13,0.01
2013-3-10,67.8,59.3,52.9,50.7,47.3,29.2,77,65,24,29.80,29.69,16,3,16,0.00
2013-3-11,71.4,60.9,52.5,55.2,50.7,44.6,84,70,49,29.70,29.55,21,5,21,0.00
2013-3-12,69.6,61.1,55.2,45.5,42.8,24.8,64,52,36,29.68,29.55,19,7,19,0.00
2013-3-13,65.5,58.5,50.9,52.8,45.2,24.2,82,62,38,29.73,29.66,20,5,20,0.00
2013-3-14,68.2,61.2,56.3,53.0,48.5,33.7,83,64,41,29.69,29.27,26,11,26,0.00
2013-3-15,59.9,54.9,48.9,42.8,39.5,19.6,65,56,28,29.59,29.36,23,8,23,0.00
2013-3-16,55.8,49.1,44.4,38.0,35.3,17.0,67,59,33,29.98,29.57,18,4,18,0.02
2013-3-17,57.4,48.4,42.4,35.8,33.2,16.0,70,57,28,30.15,29.97,15,3,15,0.00
2013-3-18,52.5,48.4,43.0,45.9,39.8,16.9,78,72,33,30.16,29.91,10,3,10,0.00
2013-3-19,62.2,56.9,52.5,51.7,48.6,31.3,82,74,66,29.91,29.75,23,8,23,0.00
2013-3-20,69.6,59.4,49.6,52.6,48.2,29.6,85,68,41,29.88,29.78,13,2,13,0.00
2013-3-21,68.0,61.5,56.3,53.3,50.5,31.1,82,68,29,29.78,29.51,24,3,24,0.00
2013-3-22,63.1,56.7,51.1,41.1,36.3,14.1,63,47,21,29.74,29.51,25,11,25,0.00
2013-3-23,65.8,55.4,46.6,40.2,27.7,4.6,64,37,18,29.95,29.73,18,4,18,0.00
2013-3-24,64.2,56.2,46.8,49.2,44.0,14.8,74,64,16,30.00,29.91,16,4,16,0.00
2013-3-25,66.9,59.5,53.8,52.8,49.2,30.5,83,70,54,29.93,29.59,20,6,20,0.00
2013-3-26,66.4,59.5,54.3,52.8,46.4,26.5,85,63,29,29.62,29.50,23,6,23,0.00
2013-3-27,66.4,59.4,52.9,50.5,45.8,25.1,69,61,49,29.80,29.62,22,4,22,0.00
2013-3-28,68.2,58.3,53.8,52.0,47.7,26.8,81,68,52,30.03,29.80,17,3,17,0.08
2013-3-29,66.9,58.7,51.6,51.7,49.1,46.9,84,71,55,30.03,29.95,10,3,10,0.00
2013-3-30,72.7,63.8,54.5,52.5,49.5,30.4,80,61,43,29.97,29.81,19,3,19,0.39
2013-3-31,67.8,61.9,57.9,55.5,52.0,30.6,81,70,34,29.83,29.71,18,4,18,0.78
2013-4-1,72.0,63.3,54.5,53.7,43.0,27.2,83,51,26,29.84,29.73,24,7,24,0.00
2013-4-2,70.0,62.6,55.0,49.2,44.9,41.3,64,53,40,29.84,29.54,18,4,19,0.00
2013-4-3,70.9,62.8,57.4,53.5,46.3,39.6,80,57,33,29.63,29.44,24,8,24,0.00
2013-4-4,72.0,62.4,55.0,44.2,41.8,39.4,64,48,33,29.89,29.62,23,8,23,0.00
2013-4-5,69.8,61.9,54.7,49.9,44.2,37.9,64,53,33,29.92,29.77,22,5,22,0.00
2013-4-6,73.2,63.9,54.1,51.7,48.1,44.7,72,58,41,29.77,29.68,10,2,10,0.00
2013-4-7,70.3,63.3,58.8,56.5,49.6,45.0,78,61,50,29.68,29.26,23,7,23,0.06
2013-4-8,60.6,57.5,53.4,48.5,46.1,44.6,76,66,57,29.86,29.37,21,6,21,0.03
2013-4-9,67.8,59.2,50.2,49.6,45.4,42.7,80,62,41,29.96,29.85,21,6,21,0.00
2013-4-10,70.2,60.9,52.2,51.9,47.4,41.2,77,62,37,29.97,29.87,21,5,21,0.00
2013-4-11,74.8,63.2,53.2,51.7,46.5,41.3,74,57,32,29.99,29.88,14,3,14,0.00
2013-4-12,72.3,63.4,54.3,49.5,46.2,42.5,72,55,41,30.03,29.95,24,4,25,0.00
2013-4-13,76.5,65.1,56.1,52.2,47.6,43.6,67,54,32,30.06,30.01,17,4,20,0.00
2013-4-14,75.4,65.7,60.1,52.6,48.5,43.2,71,55,35,30.05,29.99,22,6,22,0.00
2013-4-15,64.6,59.7,55.0,46.8,42.6,37.4,70,54,39,30.06,29.96,24,8,24,0.01
2013-4-16,65.1,57.9,52.7,45.5,41.7,37.1,76,56,38,30.04,29.97,24,9,24,0.01
2013-4-17,67.3,60.5,55.2,40.7,32.6,25.0,58,37,22,30.07,30.00,21,6,21,0.06
2013-4-18,65.1,58.0,52.9,37.2,32.6,26.0,55,39,24,30.07,29.98,23,5,23,0.00
2013-4-19,62.8,56.9,52.5,44.3,37.2,32.2,68,48,38,29.99,29.91,23,7,23,0.02
2013-4-20,66.2,58.7,53.4,43.6,39.3,35.7,63,49,37,30.00,29.91,20,6,20,0.00
2013-4-21,72.3,63.3,54.9,49.2,40.2,36.5,64,44,29,30.01,29.91,21,6,21,0.00
2013-4-22,74.1,63.7,55.2,47.2,42.3,38.3,61,47,31,30.03,29.95,13,2,13,0.00
2013-4-23,73.9,64.2,58.6,48.4,45.0,40.1,59,50,38,30.19,30.04,18,4,18,0.14
2013-4-24,79.3,67.7,55.9,50.0,43.1,31.1,68,45,18,30.27,30.17,15,3,15,0.00
2013-4-25,82.0,72.3,63.1,48.6,45.1,39.8,52,38,29,30.25,30.13,16,4,16,0.00
2013-4-26,85.1,78.2,67.7,49.9,42.5,37.0,46,29,22,30.10,29.97,14,3,14,0.00
2013-4-27,81.3,71.5,61.9,46.8,43.2,40.1,48,37,26,29.99,29.88,19,3,19,0.00
2013-4-28,72.5,70.1,66.9,41.8,40.0,37.9,40,33,31,30.03,29.99,6,1,6,0.00
2013-4-29,84.6,72.5,61.0,54.1,45.5,39.3,53,39,26,30.09,30.01,13,2,13,0.00
2013-4-30,84.7,72.6,64.9,50.5,45.8,41.6,51,39,27,30.09,30.01,14,1,13,0.00
2013-5-1,87.8,78.1,68.7,52.0,47.2,41.5,46,34,27,30.04,29.93,20,4,20,0.14
2013-5-2,88.0,79.1,70.3,47.9,41.9,36.3,38,27,20,29.95,29.88,21,5,21,0.00
2013-5-3,87.4,76.2,67.6,57.3,49.4,39.2,57,40,29,29.92,29.82,16,3,16,0.00
2013-5-4,85.3,75.7,66.4,56.6,53.9,51.8,61,48,34,29.95,29.83,13,3,13,0.00
2013-5-5,88.0,78.3,68.4,56.7,52.6,49.4,58,42,29,30.03,29.92,14,4,14,0.00
2013-5-6,86.4,77.7,70.5,56.0,53.0,49.3,55,43,31,30.05,29.96,21,7,21,0.00
2013-5-7,84.0,76.2,70.2,52.9,50.4,45.0,52,41,31,29.99,29.84,19,7,19,0.00
2013-5-8,73.8,68.2,64.0,59.0,54.1,49.1,75,61,47,29.89,29.78,14,3,14,0.00
2013-5-9,75.2,67.3,62.6,57.9,54.4,52.2,75,64,52,29.87,29.80,22,7,22,0.00
2013-5-10,72.7,67.9,61.3,56.3,53.2,49.9,80,60,50,29.86,29.82,16,6,16,0.03
2013-5-11,77.7,69.2,61.3,58.2,54.2,50.2,77,59,46,29.85,29.73,18,5,18,0.00
2013-5-12,81.1,71.9,66.4,58.2,55.3,51.4,70,57,38,29.74,29.62,20,6,20,0.04
2013-5-13,74.5,66.3,61.2,57.9,51.8,47.6,80,60,40,29.66,29.61,17,5,17,0.17
2013-5-14,101.8,65.4,59.2,89.3,51.9,4.2,80,63,10,29.82,29.65,31,6,31,0.30
2013-5-15,76.6,67.9,57.9,57.9,52.2,27.9,75,58,42,29.85,29.80,16,4,16,0.00
2013-5-16,76.8,68.4,61.5,58.2,54.2,49.4,76,61,43,29.88,29.81,15,3,15,0.00
2013-5-17,103.6,71.2,64.2,91.5,56.0,52.6,74,59,43,29.91,29.79,29,2,29,0.03
2013-5-18,88.5,75.5,64.9,61.8,58.1,18.5,74,56,36,29.97,29.87,16,2,16,0.00
2013-5-19,90.0,78.8,69.6,59.6,56.9,53.9,65,48,32,29.95,29.87,15,3,15,0.00
2013-5-20,91.8,80.2,70.7,62.1,59.0,53.8,62,49,35,29.90,29.85,12,2,12,0.00
2013-5-21,86.4,79.1,70.3,61.4,55.3,50.5,59,45,30,29.91,29.83,13,3,13,0.00
2013-5-22,83.1,74.7,70.9,59.6,54.4,43.3,62,50,25,29.87,29.70,36,3,36,0.00
2013-5-23,84.0,76.8,69.6,61.3,53.4,46.9,65,45,32,29.70,29.55,21,10,21,0.00
2013-5-24,77.9,71.6,65.5,53.6,50.0,46.8,58,47,37,29.87,29.67,21,7,21,0.00
2013-5-25,80.4,72.0,65.3,55.6,49.9,45.4,55,46,31,29.91,29.83,24,10,24,0.00
2013-5-26,82.9,73.1,66.7,52.2,49.6,44.9,55,44,31,29.91,29.81,18,5,18,0.00
2013-5-27,79.5,70.9,64.6,53.4,43.2,30.0,60,38,17,29.93,29.85,20,7,20,0.00
2013-5-28,76.3,72.3,67.1,58.9,52.5,45.8,66,50,38,29.91,29.74,12,5,12,0.00
2013-5-29,86.2,76.5,71.2,60.4,52.3,39.1,63,44,30,29.74,29.54,17,6,17,0.00
2013-5-30,86.2,76.1,70.0,61.8,54.2,46.5,70,48,28,29.70,29.61,18,6,18,0.00
2013-5-31,80.8,74.1,67.6,58.0,48.1,39.9,60,41,28,29.75,29.62,21,8,21,0.00
2013-6-1,75.0,68.0,62.4,57.6,47.6,39.7,75,49,31,29.83,29.74,17,6,17,0.01
2013-6-2,78.1,69.5,61.5,56.7,50.8,43.3,77,53,33,29.79,29.62,23,7,23,0.03
2013-6-3,79.7,70.7,62.8,54.9,51.0,45.2,63,51,31,29.84,29.78,21,6,21,0.00
2013-6-4,82.0,73.3,66.4,57.6,52.6,43.3,64,49,26,29.85,29.78,21,8,21,0.00
2013-6-5,79.9,72.9,66.4,58.0,51.5,44.1,63,48,30,29.91,29.84,21,6,21,0.00
2013-6-6,84.6,73.2,66.6,60.7,55.3,50.9,68,54,35,29.98,29.89,17,4,17,0.00
2013-6-7,79.9,75.3,72.0,59.4,52.4,45.5,63,46,32,29.91,29.80,12,4,12,0.00
2013-6-8,84.4,73.9,67.8,60.8,57.1,52.0,70,57,38,29.83,29.77,18,4,18,0.06
2013-6-9,82.9,74.1,64.9,60.3,57.0,54.9,73,56,41,29.90,29.81,14,4,14,0.00
2013-6-10,85.8,76.5,66.7,59.5,57.4,55.4,69,53,39,29.91,29.78,15,4,15,0.00
2013-6-11,86.9,78.3,70.7,63.2,56.5,49.2,73,49,29,29.80,29.59,22,5,22,0.04
2013-6-12,82.9,72.4,64.2,60.2,54.4,48.4,82,55,35,29.74,29.62,17,5,17,0.26
2013-6-13,77.2,69.8,30.9,62.3,56.7,15.3,83,64,50,29.80,29.71,15,4,15,0.03
2013-6-14,79.0,71.6,66.4,61.4,57.7,53.3,75,62,48,29.88,29.77,15,4,15,0.05
2013-6-15,83.5,74.6,68.2,60.8,58.3,55.9,69,57,46,29.90,29.85,14,4,14,0.00
2013-6-16,92.5,79.9,68.0,64.2,56.9,48.3,68,48,28,29.92,29.87,12,1,12,0.00
2013-6-17,93.2,82.2,72.5,64.8,57.5,54.3,67,45,30,29.94,29.89,16,4,16,0.00
2013-6-18,91.8,84.6,77.0,60.4,57.0,52.6,51,40,27,29.94,29.89,23,7,23,0.00
2013-6-19,92.1,84.7,77.2,58.9,55.7,50.9,48,38,29,29.91,29.83,22,7,22,0.00
2013-6-20,93.4,86.0,79.3,59.0,55.2,51.2,47,35,29,29.92,29.81,24,11,24,0.00
2013-6-21,90.0,82.5,76.6,59.4,56.3,52.8,50,41,34,29.92,29.85,20,6,20,0.00
2013-6-22,94.5,84.2,74.1,54.5,50.9,43.8,48,33,20,29.90,29.81,22,4,22,0.00
2013-6-23,96.6,85.2,75.6,61.5,56.0,48.7,49,38,28,29.84,29.75,16,4,16,0.00
2013-6-24,94.3,84.8,77.2,61.6,56.8,50.1,53,39,27,29.78,29.73,20,5,20,0.00
2013-6-25,94.5,88.4,81.1,61.6,57.0,51.4,47,35,25,29.78,29.73,15,5,15,0.00
2013-6-26,92.8,84.0,74.8,64.6,58.9,53.1,55,43,33,29.86,29.75,13,3,13,0.00
2013-6-27,90.5,81.9,75.7,65.6,61.5,56.6,63,51,33,29.88,29.83,18,4,18,0.00
2013-6-28,89.2,80.0,73.4,66.2,61.7,58.6,65,54,38,29.89,29.85,18,4,18,0.00
2013-6-29,88.0,79.3,71.4,64.0,58.4,42.3,68,50,29,29.89,29.72,17,6,17,0.00
2013-6-30,84.6,76.9,70.7,59.4,53.1,47.2,58,44,31,29.84,29.71,17,8,17,0.00
2013-7-1,87.1,77.4,70.9,61.4,53.3,47.1,65,45,27,29.98,29.84,19,6,19,0.00
2013-7-2,88.3,78.4,70.0,62.4,56.1,49.5,67,48,27,29.99,29.91,17,4,17,0.00
2013-7-3,87.8,79.1,71.1,60.1,52.8,47.3,59,41,32,29.94,29.85,16,5,16,0.00
2013-7-4,87.1,79.2,70.3,60.9,53.1,49.3,60,41,32,29.90,29.83,17,5,17,0.00
2013-7-5,87.3,80.0,73.4,59.9,53.5,47.8,46,40,31,29.89,29.83,21,6,21,0.00
2013-7-6,86.5,80.1,74.3,61.7,57.8,53.9,60,47,38,29.87,29.82,22,8,22,0.00
2013-7-7,89.4,82.5,75.7,61.7,58.8,54.9,58,45,36,29.93,29.80,22,10,22,0.00
2013-7-8,91.8,83.8,76.8,59.6,55.7,51.3,54,39,27,29.96,29.90,22,8,22,0.00
2013-7-9,92.1,84.8,79.5,61.4,57.0,51.3,48,39,30,29.95,29.81,22,9,22,0.00
2013-7-10,91.2,84.2,76.8,61.4,58.6,51.0,57,43,32,29.84,29.72,22,6,22,0.00
2013-7-11,93.0,82.6,34.0,62.9,56.1,7.2,50,41,29,29.82,29.74,15,4,15,0.00
2013-7-12,91.9,83.9,75.9,64.2,58.6,53.9,55,43,34,29.89,29.81,13,3,13,0.00
2013-7-13,90.9,83.7,77.2,62.1,59.0,54.5,53,44,32,29.89,29.84,19,4,19,0.00
2013-7-14,92.1,83.7,77.2,59.4,56.0,52.3,50,39,28,29.90,29.82,19,5,19,0.00
2013-7-15,91.2,82.5,76.3,59.3,55.3,7.0,52,40,31,29.89,29.82,21,5,21,0.00
2013-7-16,90.1,82.1,75.2,58.8,54.7,52.1,48,39,31,29.91,29.84,20,5,20,0.00
2013-7-17,81.5,77.1,72.5,59.7,56.7,51.3,63,50,40,29.95,29.90,21,8,21,0.00
2013-7-18,86.0,79.3,74.5,57.6,54.1,49.4,54,42,30,29.99,29.93,22,10,22,0.00
2013-7-19,87.8,80.5,74.8,55.1,51.9,47.6,47,38,28,29.97,29.88,23,7,23,0.00
2013-7-20,89.8,81.6,74.1,56.4,52.2,47.1,47,37,27,29.89,29.79,21,7,21,0.00
2013-7-21,92.8,84.3,76.3,56.4,53.7,48.9,43,35,27,29.87,29.80,22,7,22,0.00
2013-7-22,85.8,79.5,74.8,62.0,57.8,53.7,61,48,37,29.88,29.82,22,7,22,0.00
2013-7-23,86.9,76.9,51.1,60.1,48.9,16.4,58,39,25,29.87,29.82,20,7,20,0.00
2013-7-24,92.5,80.2,34.3,51.3,42.6,1.2,36,27,21,29.90,29.83,45,5,45,0.00
2013-7-25,97.2,85.6,75.6,60.0,51.5,44.0,43,32,18,29.92,29.84,15,3,15,0.00
2013-7-26,98.1,87.1,77.4,59.0,52.9,47.8,41,32,21,29.88,29.81,20,2,20,0.00
2013-7-27,93.9,86.3,79.5,59.2,54.8,51.4,39,34,28,29.91,29.81,25,7,25,0.00
2013-7-28,93.4,85.2,78.1,59.7,56.2,51.7,50,38,31,29.98,29.89,21,6,21,0.00
2013-7-29,95.2,87.2,79.5,58.0,54.1,50.6,44,33,23,29.98,29.90,21,6,21,0.00
2013-7-30,99.1,88.9,79.5,65.3,57.6,51.8,47,35,26,29.90,29.74,18,4,18,0.00
2013-7-31,96.6,88.3,81.9,66.8,61.0,54.6,46,40,34,29.78,29.70,24,7,24,0.00
2013-8-1,90.3,84.0,79.2,65.6,60.7,55.7,63,46,36,29.91,29.78,23,9,41,0.00
2013-8-2,90.0,83.8,78.4,60.9,57.1,51.4,53,41,31,29.93,29.89,22,7,22,0.00
2013-8-3,91.9,85.2,79.0,59.5,56.0,49.7,50,38,28,29.92,29.88,22,8,22,0.00
2013-8-4,96.6,87.8,80.2,60.0,55.0,48.1,44,34,20,29.92,29.86,21,7,21,0.00
2013-8-5,88.5,83.2,78.6,60.6,52.4,46.1,47,35,24,29.94,29.88,23,10,23,0.00
2013-8-6,88.9,83.2,78.7,55.9,51.5,47.0,42,34,24,29.91,29.84,23,10,23,0.00
2013-8-7,90.5,84.2,79.9,55.0,53.0,49.2,42,35,27,29.91,29.83,41,11,41,0.00
2013-8-8,85.6,82.5,81.0,59.2,51.7,45.9,41,35,28,29.93,29.87,23,12,23,0.00
2013-8-9,91.4,85.4,81.7,59.2,51.5,49.3,41,31,27,29.92,29.78,17,5,17,0.00
2013-8-10,94.6,84.2,77.9,67.9,59.0,50.1,69,44,26,29.79,29.63,28,7,28,0.00
2013-8-11,91.6,84.4,79.3,64.1,54.6,47.3,58,37,25,29.83,29.65,22,7,22,0.00
2013-8-12,91.6,84.6,77.7,61.9,54.6,50.6,53,37,26,29.90,29.82,21,7,21,0.00
2013-8-13,93.7,86.1,79.2,57.5,53.3,47.1,42,33,25,29.89,29.83,20,8,20,0.00
2013-8-14,94.8,87.0,79.9,56.7,52.0,45.5,42,31,21,29.84,29.79,27,7,27,0.00
2013-8-15,88.0,83.7,81.1,59.2,55.5,52.1,43,38,35,29.85,29.78,15,4,15,0.00
2013-8-16,89.4,83.7,76.6,64.6,60.6,54.2,60,46,40,29.86,29.81,30,7,30,0.00
2013-9-2,82.2,78.0,75.6,60.0,58.6,55.3,58,52,40,30.05,29.83,10,5,10,0.00
2013-9-3,87.6,78.9,71.2,65.0,59.6,56.1,64,52,37,30.05,29.94,18,4,18,0.00
2013-9-4,85.3,78.6,71.8,61.1,56.2,48.0,58,47,28,30.07,29.96,24,7,24,0.00
2013-9-5,83.7,75.3,68.2,55.7,51.2,45.8,57,44,30,30.07,29.94,16,5,16,0.00
2013-9-6,85.5,76.7,69.1,63.6,57.9,52.1,65,53,41,29.95,29.86,20,4,20,0.00
2013-9-7,82.4,76.7,72.3,64.4,60.3,56.5,65,57,45,29.99,29.90,7,2,7,0.00
2013-9-8,88.5,78.1,70.0,58.6,54.6,45.4,64,46,31,30.08,29.97,20,5,20,0.00
2013-9-9,85.5,77.1,70.0,55.1,50.8,47.2,55,40,31,30.11,30.04,18,6,18,0.00
2013-9-10,87.6,82.2,76.3,59.7,57.5,53.6,55,44,34,30.03,29.98,13,4,13,0.00
2013-9-11,87.6,80.1,70.9,67.5,60.4,54.2,66,51,40,30.00,29.91,14,4,14,0.00
2013-9-12,91.6,84.4,75.7,75.0,62.7,58.3,67,49,34,29.94,29.88,14,4,14,0.00
2013-9-13,90.3,82.3,76.1,65.6,62.5,58.7,66,52,36,29.94,29.87,16,6,16,0.00
2013-9-14,87.3,78.6,73.6,60.5,54.1,41.4,58,44,21,29.99,29.90,21,6,21,0.00
2013-9-15,84.9,76.8,70.5,59.2,50.3,36.9,64,42,19,29.97,29.85,24,5,24,0.00
2013-9-16,80.2,75.1,70.5,64.5,58.1,51.8,68,56,40,29.88,29.62,18,5,18,0.00
2013-9-17,82.8,75.6,68.0,64.8,58.3,54.8,69,56,39,29.69,29.62,21,6,21,0.00
2013-9-18,86.7,78.8,72.3,62.5,55.8,47.4,67,47,28,29.65,29.59,22,8,22,0.00
2013-9-19,84.9,76.5,68.5,62.9,57.1,54.6,64,52,37,29.72,29.63,18,5,18,0.00
2013-9-20,83.8,75.6,69.6,64.3,59.1,53.8,78,57,37,29.91,29.71,16,5,16,0.18
2013-9-21,79.5,72.6,68.7,63.7,59.0,56.5,80,63,49,30.00,29.90,14,5,14,0.00
2013-9-22,76.8,69.9,66.7,57.2,52.6,48.7,64,54,41,30.03,29.99,47,6,47,0.00
2013-9-23,77.2,69.9,64.2,52.7,49.0,46.1,63,48,37,30.02,29.88,14,4,14,0.00
2013-9-24,81.3,71.4,62.2,60.1,52.8,45.3,66,53,35,29.92,29.86,14,4,14,0.00
2013-9-25,82.8,73.2,64.2,65.1,58.6,53.0,77,61,38,29.98,29.91,16,4,16,0.00
2013-9-26,84.4,74.6,66.9,64.9,60.8,53.0,81,64,38,29.98,29.86,21,4,21,0.00
2013-9-27,87.6,76.2,66.0,63.1,58.0,52.9,70,55,33,29.90,29.82,16,4,16,0.00
2013-9-28,84.0,74.7,66.0,63.1,59.9,54.7,73,61,39,29.91,29.85,14,3,14,0.00
2013-9-29,84.0,75.3,67.1,64.3,60.5,57.2,75,61,47,29.91,29.84,15,3,15,0.00
2013-9-30,83.1,75.5,67.8,68.2,62.8,57.8,77,65,50,29.86,29.62,16,4,16,0.00
2013-10-1,79.7,72.8,65.3,69.1,61.7,54.2,88,70,46,29.64,29.50,29,7,29,1.28
2013-10-2,79.9,68.7,61.5,59.0,55.3,52.2,74,63,44,29.90,29.58,22,7,22,0.00
2013-10-3,65.1,59.7,57.6,53.5,48.5,44.1,81,67,53,30.22,29.90,21,10,21,0.10
2013-10-4,60.6,56.9,54.3,46.2,43.7,41.4,71,62,54,30.31,30.20,20,10,20,0.00
2013-10-5,65.1,57.0,52.9,44.0,42.0,39.4,69,58,41,30.32,30.21,20,8,20,0.00
2013-10-6,67.6,58.0,51.6,46.3,44.0,41.7,73,60,43,30.29,30.21,17,5,17,0.00
2013-10-7,69.6,60.7,53.4,48.2,45.8,41.8,72,59,44,30.31,30.22,23,6,23,0.00
2013-10-8,75.4,64.7,58.3,52.5,48.3,44.9,65,56,39,30.29,30.19,13,3,13,0.00
2013-10-9,75.7,66.2,58.8,55.9,50.1,43.8,70,57,34,30.22,30.09,11,3,11,0.00
2013-10-10,70.0,65.0,61.0,61.2,57.7,53.4,85,77,70,30.11,30.00,10,1,11,0.02
2013-10-11,81.3,72.8,61.3,64.0,59.6,56.0,83,65,43,30.14,30.05,10,3,10,0.00
2013-10-12,84.4,73.0,64.2,67.7,62.9,58.1,87,72,48,30.16,30.09,12,2,12,0.00
2013-10-13,84.2,72.3,66.6,65.3,59.6,54.5,85,66,44,30.13,30.06,16,4,16,0.00
2013-10-14,82.2,72.3,65.1,58.3,54.5,50.9,78,55,37,30.11,30.04,15,5,15,0.00
2013-10-15,77.7,70.2,63.3,63.9,59.0,51.6,82,68,55,30.10,29.93,14,3,14,0.00
2013-10-16,69.6,69.2,68.4,63.7,61.7,58.9,82,77,70,29.94,29.54,9,1,9,0.23
2013-10-17,71.4,65.9,60.6,63.2,50.2,38.3,82,58,33,29.71,29.47,22,6,22,0.06
2013-10-18,75.4,67.3,61.7,54.0,47.9,43.9,65,51,36,29.98,29.71,24,6,24,0.00
2013-10-19,74.3,67.5,61.3,49.1,43.5,39.7,61,43,29,30.29,29.98,14,4,14,0.00
2013-10-20,72.9,64.1,57.4,50.7,46.6,42.5,72,54,36,30.36,30.28,22,5,22,0.00
2013-10-21,75.0,63.9,54.5,54.2,46.2,39.3,72,54,34,30.29,30.14,13,2,13,0.00
2013-10-22,76.1,65.2,55.9,56.0,51.8,48.6,79,63,41,30.16,30.07,10,2,11,0.00
2013-10-23,78.6,68.5,59.5,54.4,49.7,42.5,71,52,39,30.18,30.10,39,4,39,0.00
2013-10-24,76.8,68.6,62.8,52.5,49.7,44.5,65,52,39,30.18,30.10,21,6,21,0.00
2013-10-25,76.6,65.7,55.9,48.4,45.3,40.5,65,49,29,30.15,30.05,14,3,14,0.00
2013-10-26,77.9,64.7,53.8,44.6,39.4,35.5,53,41,24,30.17,30.07,10,2,10,0.00
2013-10-27,77.5,64.9,55.2,54.7,41.5,32.6,67,44,24,30.14,30.02,12,2,12,0.00
2013-10-28,75.9,64.6,54.7,58.4,50.1,44.4,78,61,36,30.08,30.00,9,2,9,0.00
2013-10-29,77.5,65.4,55.2,58.7,50.4,42.0,75,60,29,30.03,29.94,9,2,9,0.00
2013-10-30,77.2,66.6,58.3,57.7,52.3,47.3,76,61,39,30.03,29.96,10,2,10,0.00
2013-10-31,77.7,67.4,59.5,52.6,49.9,46.0,70,55,39,30.11,30.02,17,3,17,0.00
2013-11-1,72.0,64.5,59.4,51.3,49.2,46.0,72,58,44,30.15,30.08,20,4,20,0.00
2013-11-2,71.8,62.4,55.0,53.0,50.1,46.7,75,65,48,30.13,30.02,9,2,9,0.00
2013-11-3,71.4,63.5,55.4,59.6,55.3,49.8,85,75,57,30.07,29.98,12,2,12,0.00
2013-11-4,72.3,65.4,58.3,60.7,57.5,53.4,86,76,55,30.02,29.89,12,3,12,0.00
2013-11-5,72.1,66.8,28.6,61.0,57.9,21.3,85,74,50,29.89,29.68,22,8,22,0.00
2013-11-6,68.9,61.9,59.0,60.5,55.9,52.5,88,81,60,29.69,29.55,22,3,22,0.91
2013-11-7,68.7,62.3,57.4,57.7,49.8,36.9,87,65,43,30.08,29.64,20,5,20,0.01
2013-11-8,73.8,62.9,54.5,50.7,44.8,37.1,66,53,38,30.13,30.05,30,3,30,0.00
2013-11-9,72.3,62.9,56.1,54.9,49.8,44.8,79,63,45,30.08,29.98,29,2,29,0.00
2013-11-10,69.6,62.3,28.4,58.8,54.5,18.1,85,76,64,29.99,29.82,10,2,10,0.00
2013-11-11,69.8,63.4,28.6,62.1,58.2,21.3,90,83,73,29.94,29.78,23,4,23,2.35
2013-11-12,70.5,65.0,61.7,61.9,59.6,55.8,89,83,71,30.03,29.93,14,4,14,0.01
2013-11-13,68.4,62.0,59.2,56.1,53.6,50.6,84,74,62,30.03,29.93,18,7,18,0.03
2013-11-14,63.7,58.8,56.5,54.3,52.3,27.2,89,79,29,29.95,29.83,20,5,20,1.39
2013-11-15,62.8,58.3,55.9,51.8,49.5,47.8,80,73,63,30.09,29.86,22,8,22,0.01
2013-11-16,60.6,57.0,55.2,50.1,47.9,44.4,79,72,65,30.15,30.08,18,6,18,0.00
2013-11-17,62.2,56.0,52.3,45.6,42.0,39.5,72,60,46,30.15,30.06,18,6,18,0.00
2013-11-18,61.5,54.5,49.5,45.7,43.3,41.1,75,66,50,30.13,30.06,11,2,29,0.00
2013-11-19,64.6,57.1,50.9,50.9,45.8,42.9,75,67,51,30.12,29.99,9,1,9,0.00
2013-11-20,67.6,61.6,57.7,61.1,56.0,6.9,89,82,12,29.99,29.83,13,2,13,0.21
2013-11-21,68.5,61.4,55.2,57.6,53.1,50.0,89,75,57,29.85,29.72,18,3,18,0.35
2013-11-22,66.0,58.6,53.4,53.3,50.1,47.1,90,74,54,29.78,29.67,10,2,10,0.20
2013-11-23,66.0,58.9,52.3,54.7,51.5,46.9,86,77,66,29.79,29.70,17,2,17,0.06
2013-11-24,61.5,58.1,54.3,56.1,52.3,19.9,90,81,22,29.77,29.65,17,2,17,0.74
2013-11-25,65.1,57.8,51.6,51.7,47.8,42.8,87,71,46,29.72,29.67,11,1,11,0.01
2013-11-26,65.7,56.9,52.2,53.2,48.8,45.1,84,75,50,29.77,29.66,12,1,12,0.04
2013-11-27,61.5,55.6,49.8,49.0,39.9,33.9,84,57,38,30.20,29.76,17,5,17,0.00
2013-11-28,58.5,51.7,47.1,41.3,38.1,33.3,76,61,42,30.30,30.19,13,2,13,0.00
2013-11-29,61.2,51.1,42.6,44.0,39.2,33.0,77,64,43,30.24,30.06,10,2,10,0.00
2013-11-30,55.0,52.8,50.2,47.8,44.8,40.2,84,74,64,30.14,30.03,16,6,16,0.13
2013-12-1,62.8,58.8,52.7,57.1,52.7,47.2,86,80,74,30.06,29.93,17,5,17,0.08
2013-12-2,64.2,59.0,56.5,56.9,54.1,50.4,90,84,74,30.08,29.94,18,5,18,0.90
2013-12-3,57.0,49.6,45.0,50.9,40.2,34.8,81,70,62,30.19,30.06,29,13,29,0.01
2013-12-4,48.7,45.5,43.0,38.8,35.9,34.2,81,69,60,30.15,30.04,28,13,28,0.00
2013-12-5,46.6,46.6,46.6,34.3,34.3,34.3,62,62,62,30.06,30.06,15,15,15,0.00
2013-12-6,59.5,51.0,40.6,44.5,36.8,29.5,78,59,39,30.06,29.86,15,6,15,0.00
2013-12-7,57.4,50.6,46.8,46.9,38.5,27.7,82,64,45,30.23,29.85,22,4,22,0.00
2013-12-8,52.7,47.2,42.1,29.2,25.7,20.4,55,43,29,30.42,30.22,22,5,22,0.00
2013-12-9,57.4,48.4,38.7,39.0,30.5,21.5,69,51,26,30.43,30.17,14,2,14,0.00
2013-12-10,59.2,51.0,44.1,43.7,36.4,30.9,82,59,38,30.39,30.10,24,7,24,0.00
2013-12-11,43.9,41.4,39.9,30.5,24.7,21.2,59,51,43,30.51,30.39,24,8,24,0.00
2013-12-12,50.4,44.4,38.3,36.3,28.7,20.4,69,55,34,30.47,30.24,18,5,18,0.00
2013-12-13,49.1,46.8,43.7,40.7,39.0,35.3,82,74,66,30.26,30.15,10,2,10,0.00
2013-12-14,58.1,48.5,40.1,41.7,38.5,34.2,82,69,45,30.38,30.21,6,1,6,0.00
2013-12-15,59.7,52.3,46.8,48.6,45.0,40.8,85,76,62,30.38,30.29,8,1,8,0.00
2013-12-16,56.5,51.7,48.2,46.6,43.0,37.6,84,72,59,30.40,30.30,20,6,20,0.00
2013-12-17,50.2,48.0,46.0,39.6,37.7,33.9,74,67,56,30.44,30.36,20,6,20,0.00
2013-12-18,48.7,46.5,44.6,39.3,37.1,35.2,73,70,63,30.36,30.23,22,8,22,0.00
2013-12-19,54.0,47.5,43.7,39.0,37.1,34.6,77,67,53,30.31,30.22,17,6,17,0.00
2013-12-20,57.9,47.6,39.9,40.6,35.7,29.5,78,65,35,30.48,30.31,7,2,7,0.00
2013-12-21,59.5,48.8,41.2,42.2,37.6,33.6,80,66,51,30.53,30.46,5,1,5,0.00
2013-12-22,64.2,50.1,41.2,40.7,35.8,30.8,71,59,38,30.52,30.39,10,2,10,0.00
2013-12-23,61.5,50.1,43.5,43.6,39.3,34.1,77,67,45,30.41,30.27,13,4,13,0.00
2013-12-24,53.4,50.6,48.0,45.7,43.3,41.2,79,76,70,30.33,30.19,16,3,16,0.00
2013-12-25,61.9,55.1,51.4,50.4,48.2,45.1,84,78,64,30.22,30.05,15,6,15,0.00
2013-12-26,62.4,57.0,51.4,54.0,50.3,46.8,85,79,65,30.06,29.86,18,4,18,0.00
2013-12-27,59.4,55.9,52.3,54.5,51.6,48.9,91,86,75,29.86,29.78,26,5,26,1.68
2013-12-28,59.0,54.4,51.8,50.2,48.2,42.0,89,80,61,29.93,29.80,21,7,21,0.05
2013-12-29,62.2,55.4,49.1,45.1,42.8,38.7,75,63,50,30.08,29.91,22,6,24,0.00
2013-12-30,64.0,53.2,45.1,45.0,42.0,38.4,78,66,48,30.13,30.04,9,1,9,0.00
2013-12-31,52.2,49.4,46.6,43.8,40.7,39.4,77,72,67,30.19,30.10,16,5,16,0.00
2014-1-1,50.4,48.1,46.0,44.9,41.5,37.0,88,78,65,30.18,30.07,10,2,10,0.25
2014-1-2,57.0,51.4,48.4,46.2,43.9,41.7,86,76,61,30.13,30.05,13,2,13,0.02